Location: Firdgum
(53.2488°N, 5.5615°E)
Time: 03:21:07
(UTC+00:00)

CZ-4B R/B - Pass Details

Date: 08 December 2019
Orbit: 809 x 881 km, 99.1° (Epoch: 20 January)

Event Time Altitude Azimuth Distance (km) Brightness Sun altitude
Rises 05:49:23 0° 15° (NNE) 3,433 6.3 -15.1°
Reaches altitude 10° 05:51:45 10° 14° (NNE) 2,503 5.6 -14.8°
Maximum altitude 05:57:19 76° 290° (WNW) 900 3.2 -14.0°
Drops below altitude 10° 06:02:56 10° 206° (SSW) 2,525 5.6 -13.2°
Sets 06:05:19 0° 205° (SSW) 3,464 6.4 -12.9°
